Regional Weather Roundup
Issued by NWS

Home | Current Version | Previous Version | Text Only | Print | Product List | Glossary On
Versions: 1 2 3 4 5 6 7 8 9 10 11 12 13 14 15 16 17 18 19 20 21 22 23 24 25 26 27 28 29 30 31 32 33 34 35 36 37 38 39 40 41 42 43 44 45 46 47 48 49 50
000
ASUS43 KLSX 301059
RWRMO

WEATHER SUMMARY FOR MISSOURI
NATIONAL WEATHER SERVICE SPRINGFIELD MO
600 AM CDT SAT MAY 30 2015

NOTE: "FAIR" INDICATES FEW OR NO CLOUDS BELOW 12,000 FEET WITH NO
       SIGNIFICANT WEATHER AND/OR OBSTRUCTIONS TO VISIBILITY.
       CURRENT SKY AND/OR WEATHER CONDITIONS ARE NOT AVAILABLE FOR
       CHILLICOTHE AND FARMINGTON.

MOZ001>031-035>038-043-044-053-054-301200-
...NORTHERN AND WESTERN MISSOURI...

CITY           SKY/WX    TMP DP  RH WIND       PRES   REMARKS
KANSAS CTY INT CLOUDY    57  56  96 N13G22    30.01R
KANSAS C DTWN  CLOUDY    62  58  86 N10       29.99R
LEE`S SUMMIT   CLOUDY    64  62  93 N14       29.98S
ST JOSEPH      CLOUDY    56  54  93 N15       30.04R
CHILLICOTHE      N/A     65  62  90 N10       29.99R
KIRKSVILLE     CLOUDY    65  64  97 CALM      29.97S

$$
MOZ066>068-077>081-088>096-101>105-301200-
...SOUTHWEST MISSOURI...

CITY           SKY/WX    TMP DP  RH WIND       PRES   REMARKS
SPRINGFIELD    CLOUDY    65  63  93 CALM      29.95S
JOPLIN         FOG       64  63  96 VRB5      29.99R VSB 1/2

$$
MOZ032>034-039>042-045>050-055>058-069>072-301200-
...CENTRAL MISSOURI...

CITY           SKY/WX    TMP DP  RH WIND       PRES   REMARKS
COLUMBIA       LGT RAIN  66  65  96 NE5       29.95S
JEFFERSON CITY LGT RAIN  67  65  93 CALM      29.94S
ROLLA          LGT RAIN  64  63  96 CALM      29.93F
SEDALIA        CLOUDY    66  64  93 N3        29.97R FOG
OSAGE BEACH    CLOUDY    64  63  94 CALM      29.95R

$$
MOZ051-052-059>065-301200-
...EAST CENTRAL MISSOURI...

CITY           SKY/WX    TMP DP  RH WIND       PRES   REMARKS
ST LOUIS INTL  CLOUDY    69  66  90 CALM      29.95S
SPIRIT OF STL  LGT RAIN  68  67  96 CALM      29.94S
ST CHARLES     LGT RAIN  68  66  93 N5        29.94S

$$
MOZ072>076-082>087-097>100-106>115-301200-
...SOUTH CENTRAL AND SOUTHEAST MISSOURI...

CITY           SKY/WX    TMP DP  RH WIND       PRES   REMARKS
CAPE GIRARDEAU CLOUDY    73  69  87 SE6       29.95S
FARMINGTON     CLOUDY    66  66 100 NE5       29.99R
POPLAR BLUFF   CLOUDY    70  66  87 CALM      29.94R
WEST PLAINS    LGT RAIN  65  62  90 N6        29.96S

$$


USA.gov is the U.S. government's official web portal to all federal, state and local government web resources and services.